Lid_Strength_Index
4 4 4 4 5 5 5 5 5 5 5 5 4 4 4 4 5 5 5 5 5 5 5 4 4 3 5 7 6 0 -2 -1 -0 3 3 4 6 6 8 7 6 7 6 5 5 5 5
4 4 4 4 5 5 5 5 5 5 5 5 5 5 5 4 4 5 5 5 5 5 5 4 3 4 5 8 3 2 3 1 2 3 3 4 5 5 6 6 7 5 6 6 5 5 5
4 4 4 4 4 4 5 4 5 5 5 5 5 5 5 5 5 4 5 5 5 5 5 4 3 4 7 7 3 3 2 3 2 2 3 2 2 4 5 7 4 5 7 6 6 6 6
4 4 4 4 4 5 5 5 5 5 5 5 5 5 5 5 5 5 5 5 5 5 4 3 3 6 9 3 2 2 2 2 1 1 2 2 2 4 5 4 6 8 8 11 7 6 6
4 4 4 4 4 5 5 5 5 5 5 5 5 5 6 5 5 5 5 5 4 4 3 3 6 8 9 3 5 2 1 2 2 2 2 1 3 5 6 9 10 9 13 11 9 6 7
4 4 4 4 4 5 5 5 5 5 6 5 5 6 6 6 5 5 5 5 3 3 3 4 5 9 6 6 5 4 2 1 3 3 4 4 5 8 8 10 15 13 12 11 11 8 7
4 4 4 4 4 5 5 5 5 5 5 6 6 6 6 6 6 6 6 5 7 8 7 8 8 6 4 3 3 4 2 2 3 5 8 6 9 11 9 8 8 9 10 11 9 8 9
4 4 4 5 5 5 5 5 5 5 5 5 6 6 6 6 6 6 7 7 4 5 8 6 6 6 5 4 5 4 2 5 6 8 6 8 10 7 7 7 8 8 10 10 9 8 8
4 4 5 5 5 5 5 5 5 6 5 5 6 6 6 6 6 7 7 7 5 5 8 6 5 6 6 5 5 5 3 4 6 8 8 9 8 6 7 8 9 9 11 11 10 9 9
4 4 4 5 5 5 5 5 5 6 5 6 6 6 6 7 6 6 6 6 6 5 10 8 8 6 6 5 6 3 3 4 6 8 7 8 7 7 8 8 8 12 7 7 9 10 14
4 4 4 5 5 5 5 5 5 5 6 6 6 6 6 6 8 7 4 3 4 5 15 6 7 4 6 7 6 5 3 4 7 7 8 8 8 8 8 8 7 9 7 8 8 11 12
4 4 4 4 5 5 5 5 5 5 5 5 5 6 6 5 6 5 5 5 5 10 14 8 6 8 9 8 7 5 5 4 5 6 7 7 6 7 8 6 6 6 8 9 9 11 14
5 5 5 5 5 5 5 5 5 5 5 5 5 6 7 5 5 3 4 6 10 13 7 9 9 8 9 9 8 7 7 7 9 12 11 8 8 7 6 8 7 8 11 14 15 15 16
5 5 5 5 5 5 5 5 5 5 5 6 6 6 6 5 3 3 4 8 13 9 9 7 8 8 9 8 8 7 8 9 7 8 10 11 11 8 6 8 9 10 11 14 18 20 17
4 5 5 5 5 5 5 5 5 4 5 6 7 3 3 3 3 3 6 11 11 8 7 7 7 9 10 8 8 8 9 9 7 7 11 11 11 7 6 6 7 9 11 9 13 13 15
4 4 5 5 5 5 5 5 5 5 5 6 7 4 4 1 2 5 8 10 8 7 6 7 9 8 10 9 10 10 9 8 7 7 6 9 11 8 7 7 7 9 8 12 12 17 18
4 4 4 4 4 4 5 5 5 5 6 6 5 5 2 2 4 7 9 8 7 6 6 7 8 9 8 9 9 10 10 7 6 7 7 8 10 10 9 10 10 10 11 11 12 13 16
4 4 4 4 4 4 4 4 5 6 6 5 4 7 2 3 8 8 9 7 7 7 6 6 6 8 8 7 8 8 8 8 7 6 9 8 11 13 10 8 7 9 10 11 14 14 13
4 4 4 4 4 4 4 4 5 5 6 8 5 5 1 3 9 9 8 8 7 6 7 7 7 6 7 8 10 8 7 6 7 7 8 7 11 14 12 10 9 10 9 11 11 13 14
4 4 4 4 4 4 4 3 4 4 5 6 5 8 5 4 4 7 8 8 8 5 7 7 7 6 7 8 8 9 8 6 6 6 3 6 10 11 13 12 9 10 9 8 11 14 13
4 4 4 4 4 4 4 4 4 4 4 5 5 7 5 8 7 6 6 7 7 7 5 5 7 7 7 9 9 9 7 7 6 6 7 8 11 11 9 8 8 9 9 8 11 10 12
4 4 4 4 4 4 3 4 4 4 5 4 6 6 6 7 6 7 7 7 7 7 7 7 7 6 7 9 8 9 8 8 9 7 8 8 12 11 11 8 8 9 8 8 8 8 9
4 4 4 4 4 4 3 3 4 5 5 3 2 2 5 7 7 7 7 7 6 6 6 5 6 6 7 7 6 6 6 7 7 9 9 10 11 12 13 9 9 12 9 9 9 9 9
4 4 4 3 3 3 3 3 3 4 5 5 2 3 6 8 7 7 6 6 6 5 7 5 5 7 5 4 5 5 6 6 7 7 7 11 12 13 15 12 16 10 7 8 9 9 8
4 4 3 3 3 3 3 3 3 3 4 5 4 3 5 8 6 6 6 6 6 6 6 6 5 4 4 5 8 10 9 9 8 7 8 8 11 14 17 15 11 9 8 9 10 10 7
4 4 4 3 3 3 3 2 2 3 4 4 4 1 4 7 7 6 7 7 7 7 7 6 4 4 5 7 9 13 14 11 11 9 8 8 8 11 14 15 16 11 7 6 7 13 7
4 4 4 3 3 3 3 3 2 3 4 4 4 2 3 7 5 6 8 8 7 6 8 6 6 5 5 9 11 12 11 8 11 11 11 11 11 12 13 14 12 8 7 6 14 14 7
4 4 4 3 3 3 3 3 3 3 3 4 4 2 2 5 5 4 4 5 6 7 8 6 7 7 8 11 11 10 11 9 11 10 11 12 13 14 14 15 17 7 7 12 9 7 7
4 4 4 4 4 4 3 3 3 3 3 3 4 3 1 4 4 2 2 2 3 4 7 5 7 7 7 10 10 10 11 10 11 13 8 13 11 13 12 13 8 7 7 5 5 6 6